Location: Brno
(49.2000°N, 16.6330°E)
Time: 01:49:43
(UTC+02:00)

Vanguard 3 - Pass Details

Date: 05 August 2021
Orbit: 510 x 3260 km, 33.3° (Epoch: 19 September)

Event Time Altitude Azimuth Distance (km) Brightness Sun altitude
Rises 15:12:09 0° 182° (S) 4,554 11.4 47.9°
Reaches altitude 10° 15:17:00 10° 158° (SSE) 4,128 11.0 47.3°
Maximum altitude 15:22:14 14° 131° (SE) 4,326 10.9 46.6°
Drops below altitude 10° 15:28:36 10° 105° (ESE) 5,237 11.1 45.8°
Sets 15:36:31 0° 86° (E) 6,790 11.5 44.7°
